Flagstaff, Arizona, United States (86001)
Lat: 35.20N, Lon: 111.65W
Wx Zone: AZZ015
Local Info
Past Weather Observations for Saturday, November 15, 2014

NOTE: This archive is for the closest National Weather Service station to Flagstaff. Information may differ from the station used for current weather conditions.

Click here for Long-term Archive

Time Weather Temperature Dewpoint Humidity Pressure Winds Precip Visibility
23:57
Clear
39°F / 4°C 34°F / 1°C 81% 29.98 in
(1015 mb)
SSW 12.7 mph
(SSW 20 kph)
- 10SM
22:57
Partly Cloudy
39°F / 4°C 34°F / 1°C 81% 29.98 in
(1015 mb)
SSW 16.1 mph
(SSW 26 kph)
0.00 in
(0.00 mm)
10SM
21:57
Clear
41°F / 5°C 34°F / 1°C 76% 29.98 in
(1015 mb)
SSW 17.3 mph
(SSW 28 kph)
- 10SM
20:57
Clear
41°F / 5°C 30°F / -1°C 66% 29.98 in
(1015 mb)
SSW 19.6 mph
(SSW 32 kph)
- 10SM
19:57
Clear
43°F / 6°C 28°F / -2°C 57% 29.98 in
(1015 mb)
SSW 15 mph
(SSW 24 kph)
- 10SM
18:57
Clear
43°F / 6°C 27°F / -3°C 53% 29.98 in
(1015 mb)
SSW 16.1 mph
(SSW 26 kph)
- 10SM
17:57
Clear
45°F / 7°C 25°F / -4°C 46% 29.98 in
(1015 mb)
SSW 16.1 mph
(SSW 26 kph)
- 10SM
16:57
Partly Cloudy
46°F / 8°C 27°F / -3°C 46% 30.01 in
(1016 mb)
SSW 19.6 mph
(SSW 32 kph)
- 10SM
15:57
Partly Cloudy
46°F / 8°C 34°F / 1°C 62% 30.01 in
(1016 mb)
SSW 18.4 mph
(SSW 30 kph)
- 10SM
14:57
Mostly Cloudy
48°F / 9°C 36°F / 2°C 62% 30.01 in
(1016 mb)
SW 19.6 mph
(SW 32 kph)
- 10SM
14:47
Mostly Cloudy
48°F / 9°C 34°F / 1°C 58% 30.01 in
(1016 mb)
SW 19.6 mph
(SW 32 kph)
- 10SM
14:21
Mostly Cloudy
48°F / 9°C 34°F / 1°C 58% 30.04 in
(1017 mb)
SW 23 mph
(SW 37 kph)
- 10SM
13:57
Mostly Cloudy
48°F / 9°C 34°F / 1°C 58% 30.04 in
(1017 mb)
SSW 17.3 mph
(SSW 28 kph)
- 10SM
12:57
Mostly Cloudy
48°F / 9°C 32°F / 0°C 54% 30.06 in
(1018 mb)
SW 21.9 mph
(SW 35 kph)
- 10SM
12:50
Mostly Cloudy
46°F / 8°C 30°F / -1°C 53% 30.06 in
(1018 mb)
SSW 18.4 mph
(SSW 30 kph)
- 10SM
11:57
Partly Cloudy
46°F / 8°C 34°F / 1°C 62% 30.09 in
(1019 mb)
SW 15 mph
(SW 24 kph)
- 10SM
11:36
Partly Cloudy
45°F / 7°C 34°F / 1°C 66% 30.09 in
(1019 mb)
SW 19.6 mph
(SW 32 kph)
- 10SM
11:20
Mostly Cloudy
45°F / 7°C 34°F / 1°C 66% 30.12 in
(1020 mb)
SW 15 mph
(SW 24 kph)
- 10SM
10:57
Partly Cloudy
45°F / 7°C 36°F / 2°C 71% 30.12 in
(1020 mb)
S 12.7 mph
(S 20 kph)
- 10SM
10:37
Partly Cloudy
45°F / 7°C 34°F / 1°C 66% 30.12 in
(1020 mb)
SW 10.4 mph
(SW 17 kph)
- 10SM
09:57
Overcast
45°F / 7°C 36°F / 2°C 71% 30.15 in
(1021 mb)
SSE 15 mph
(SSE 24 kph)
- 10SM
08:57
Overcast
41°F / 5°C 37°F / 3°C 87% 30.12 in
(1020 mb)
SW 10.4 mph
(SW 17 kph)
- 10SM
08:08
Overcast
39°F / 4°C 36°F / 2°C 87% 30.12 in
(1020 mb)
SSW 4.6 mph
(SSW 7 kph)
- 10SM
07:57
Mostly Cloudy
37°F / 3°C 36°F / 2°C 93% 30.12 in
(1020 mb)
Variable 4.6 mph
(Variable 7 kph)
- 10SM
07:29
Overcast
36°F / 2°C 34°F / 1°C 93% 30.12 in
(1020 mb)
Calm - 10SM
06:57
Mostly Cloudy
36°F / 2°C 34°F / 1°C 93% 30.12 in
(1020 mb)
Calm - 10SM
06:52
Mostly Cloudy
36°F / 2°C 34°F / 1°C 93% 30.09 in
(1019 mb)
Calm - 10SM
05:57
Overcast
36°F / 2°C 34°F / 1°C 93% 30.09 in
(1019 mb)
Calm - 10SM
05:12
Mostly Cloudy
37°F / 3°C 34°F / 1°C 87% 30.09 in
(1019 mb)
Variable 4.6 mph
(Variable 7 kph)
- 10SM
04:57
Partly Cloudy
37°F / 3°C 34°F / 1°C 87% 30.09 in
(1019 mb)
SSW 6.9 mph
(SSW 11 kph)
- 10SM
03:57
Partly Cloudy
34°F / 1°C 30°F / -1°C 87% 30.09 in
(1019 mb)
SW 4.6 mph
(SW 7 kph)
- 10SM
03:55
Partly Cloudy
34°F / 1°C 30°F / -1°C 87% 30.09 in
(1019 mb)
SW 3.5 mph
(SW 6 kph)
- 10SM
02:57
Partly Cloudy
37°F / 3°C 34°F / 1°C 87% 30.06 in
(1018 mb)
SSW 5.8 mph
(SSW 9 kph)
- 10SM
02:50
Partly Cloudy
37°F / 3°C 34°F / 1°C 87% 30.06 in
(1018 mb)
SW 5.8 mph
(SW 9 kph)
- 10SM
02:13
Mostly Cloudy
39°F / 4°C 36°F / 2°C 87% 30.06 in
(1018 mb)
SSW 5.8 mph
(SSW 9 kph)
- 10SM
01:57
Mostly Cloudy
39°F / 4°C 36°F / 2°C 87% 30.09 in
(1019 mb)
SSW 8.1 mph
(SSW 13 kph)
- 10SM
00:57
Overcast
41°F / 5°C 36°F / 2°C 81% 30.06 in
(1018 mb)
SW 10.4 mph
(SW 17 kph)
- 10SM
Time Weather Temperature Dewpoint Humidity Pressure Winds Precip Visibility


Weather for websites

WeatherForYou.com, LLC is not responsible for any damages or problems caused by this service. Current weather conditions are obtained from the closest station including government and personal stations which may have varying degrees of accuracy. Weather forecasts are derived from the NOAA NDFD. Like all things, this site belongs to Jesus Christ... He just trusts me to maintain it. If you have any questions or comments email webmaster@weatherforyou.com

Copyright © 2014, WeatherForYou.com LLC. All rights reserved.